Regional Weather Roundup
Issued by NWS Burlington, VT

Current Version | Previous Version | Text Only | Print | Product List | Glossary Off
Versions: 1 2 3 4 5 6 7 8 9 10 11 12 13 14 15 16 17 18 19 20 21 22 23 24 25 26 27 28 29 30 31 32 33 34 35 36 37 38 39 40 41 42 43 44 45 46 47 48 49 50

015
ASUS41 KBTV 301710
RWRBTV
VERMONT REGIONAL WEATHER ROUNDUP
NATIONAL WEATHER SERVICE BURLINGTON VT
100 PM EDT SUN APR 30 2017

NOTE: "FAIR" INDICATES FEW OR NO CLOUDS BELOW 12,000 FEET WITH NO
SIGNIFICANT WEATHER AND/OR OBSTRUCTIONS TO VISIBILITY.

* THESE REPORTS ARE NOT UNDER NWS QUALITY CONTROL AND/OR DO NOT
  REPORT WEATHER SUCH AS PRECIPITATION AND FOG.

VTZ001>019-301800-
_____VERMONT_____


CITY           SKY/WX    TMP DP  RH WIND       PRES   REMARKS
BURLINGTON     CLOUDY    43  28  55 NW7       30.30F
MONTPELIER     LGT RAIN  43  27  53 CALM      30.30F
MORRISVILLE    CLOUDY    42  25  50 CALM      30.28F
ST. JOHNSBURY*   N/A     44  26  49 MISG      30.25F
LYNDONVILLE*   DRIZZLE   40  26  56 N5        30.29F
MIDDLEBURY*    DRIZZLE   41  31  68 N6        30.26F
RUTLAND*       CLOUDY    44  30  57 NW7       30.28F
SPRINGFIELD    CLOUDY    47  31  53 VRB5      30.30S
HIGHGATE*      CLOUDY    42  26  53 N3        30.30F
NEWPORT*       FAIR      40  28  60 SE5       30.28F
BENNINGTON     CLOUDY    50  31  48 CALM      30.23F
SUTTON*          N/A     39 N/A N/A MISG        N/A

_____LAKE CHAMPLAIN_____


CITY           SKY/WX    TMP DP  RH WIND       PRES   REMARKS
BURTON ISLAND*   N/A     41  30  65 N2          N/A
COLCHESTER RF*   N/A     39  32  75 NW9         N/A
DIAMOND ISL*     N/A     39  30  70 N14         N/A  WCI  31

$$

NYZ007-026>031-035-052-083-087-301800-
_____NORTHERN NEW YORK_____


CITY           SKY/WX    TMP DP  RH WIND       PRES   REMARKS
PLATTSBURGH    LGT RAIN  40  25  55 CALM      30.31F
SARANAC LAKE   LGT RAIN  38  33  82 E12       30.19F WCI  30
MASSENA        CLOUDY    42  30  62 E12       30.29F
OGDENSBURG*    LGT RAIN  40  34  79 NE9       30.26F
POTSDAM*       LGT RAIN  39  36  87 E6        30.27F
WATERTOWN      CLOUDY    42  39  89 NE10      30.23F
FT DRUM        MOSUNNY   41  36  81 E3        30.23R
ALBANY         LGT RAIN  49  31  49 NE7       30.28F
GLENS FALLS    CLOUDY    45  29  53 N7        30.28F

$$
NHZ002-005-011-301800-
_____NEW HAMPSHIRE_____


CITY           SKY/WX    TMP DP  RH WIND       PRES   REMARKS
LEBANON        CLOUDY    47  30  51 VRB3      30.27F
KEENE          RAIN      51  30  44 N6        30.28S
MT WASHINGTON  CLOUDY    41  10  28 NW23        N/A  WCI  31
PLYMOUTH       LGT RAIN  49  28  42 SW7       30.28F
WHITEFIELD     CLOUDY    46  23  40 VRB3      30.29S

$$

_____REGIONAL QUEBEC LOCATIONS_____


CITY           SKY/WX    TMP DP  RH WIND       PRES   REMARKS
MONTREAL       LGTSLEET  43  27  52 N7        30.31S
QUEBEC CITY    PTSUNNY   48  25  40 S8        30.29F
SHERBROOKE     MOSUNNY   43  27  52 SW7       30.28F

_____REGIONAL ONTARIO LOCATIONS_____


CITY           SKY/WX    TMP DP  RH WIND       PRES   REMARKS
OTTAWA         LGT RAIN  37  30  75 E10       30.28F WCI  30

______KEY______
VSB  - VISIBILITY IN MILES
WCI  - WIND CHILL INDEX
HX   - HEAT INDEX
$$
NNNN




USA.gov is the U.S. government's official web portal to all federal, state and local government web resources and services.